星链-30221 (STARLINK-30221 )

导读 | 豆包AI

STARLINK-30221是美国SpaceX星链星座的卫星,于2023年7月20日发射入轨,属于星链互联网卫星组网的一部分。星链系统旨在为全球提供低延迟、高速率的卫星互联网服务,该卫星承担地面网络覆盖盲区互联网接入等任务,依托低轨布局提升全球通信连接的覆盖广度与稳定性。

Basic Information
目录编号:
57418
目录名称:
STARLINK-30221
国际标识:
2023-102Q
轨道中心:
EARTH
卫星名称:
星链-30221
卫星全名:
星链-30221 (STARLINK-30221 )
卫星状态:
在轨 (已飞行1015 天)
发射日期:
2023-07-20 UTC
国别 :
美国 (US)
星等 :
--
Orbit Information
数据来源 国际轨道数据
星历时间: 2026-04-30T14:00:02+0800
11小时前
查看轨道信息
半长轴: 6886.856km
偏心率: 0.0001946
轨道倾角: 43.001°
近地点辐角 297.942°
升交点赤经 324.197°
平近点角 134.179°
近地点: 507.378km
远地点: 510.06km
周期: 94.796分钟
每日圈数: 15.190474
Detailed Information
固有亮度:
5
最大亮度:
0.3
卫星平台:
Starlink v2.0 mini
覆盖范围:
全球
运营商:
太空探索技术公司
运营商所在国:
美国
制造商(研发单位):
太空探索技术公司
制造商所在国:
美国
使用方式:
暂无
Satellite Introduction
星链(Starlink)计划是由太空探索技术公司(SpaceX)提出的一个巨型低轨卫星互联网星座项目,计划在2019年至2024年间在太空搭建由约1.2万颗卫星组成的“星链”网络,其中1584颗将部署在地球上空550千米处的近地轨道,并从2020年开始工作。该卫星仍在工作。
2D Orbit Map
3D Orbit Map
Orbit Altitude Analysis Chart
Orbit Inclination Analysis Chart
Orbit Comprehensive Analysis Chart
View Comprehensive Chart